Time,TemperatureF,DewpointF,PressureIn,WindDirection,WindDirectionDegrees,WindSpeedMPH,WindSpeedGustMPH,Humidity,HourlyPrecipIn,Conditions,Clouds,dailyrainin,SolarRadiationWatts/m^2,SoftwareType,DateUTC
2013-05-20 00:00:00,59.0,36.5,30.09,WNW,298,8.1,0.0,43,0.00,CLR,CLR,0.00,0.0,WeatherDisplay:10.37,2013-05-20 07:00:00,
2013-05-20 00:05:00,59.0,36.5,30.09,WNW,298,8.1,0.0,43,0.00,CLR,CLR,0.00,0.0,WeatherDisplay:10.37,2013-05-20 07:05:00,
2013-05-20 00:11:00,59.0,36.5,30.09,WNW,298,8.1,0.0,43,0.00,CLR,CLR,0.00,0.0,WeatherDisplay:10.37,2013-05-20 07:11:00,
2013-05-20 00:16:00,59.0,36.5,30.09,WNW,298,8.1,0.0,43,0.00,CLR,CLR,0.00,0.0,WeatherDisplay:10.37,2013-05-20 07:16:00,
2013-05-20 00:21:00,59.0,36.5,30.09,WNW,298,8.1,0.0,43,0.00,CLR,CLR,0.00,0.0,WeatherDisplay:10.37,2013-05-20 07:21:00,
2013-05-20 00:26:00,44.2,39.1,30.09,WNW,298,8.1,0.0,82,0.00,CLR,CLR,0.00,0.0,WeatherDisplay:10.37,2013-05-20 07:26:00,
2013-05-20 00:32:00,44.2,39.1,30.09,WNW,298,8.1,0.0,82,0.00,CLR,CLR,0.00,0.0,WeatherDisplay:10.37,2013-05-20 07:32:00,
2013-05-20 00:37:00,44.2,39.1,30.09,WNW,298,8.1,0.0,82,0.00,CLR,CLR,0.00,0.0,WeatherDisplay:10.37,2013-05-20 07:37:00,
2013-05-20 00:42:00,44.2,39.1,30.09,WNW,298,8.1,0.0,82,0.00,CLR,CLR,0.00,0.0,WeatherDisplay:10.37,2013-05-20 07:42:00,
2013-05-20 00:47:00,44.2,39.1,30.09,WNW,298,8.1,0.0,82,0.00,CLR,CLR,0.00,0.0,WeatherDisplay:10.37,2013-05-20 07:47:00,
2013-05-20 00:52:00,44.2,39.1,30.09,WNW,298,8.1,0.0,82,0.00,CLR,CLR,0.00,0.0,WeatherDisplay:10.37,2013-05-20 07:52:00,
2013-05-20 00:57:00,44.2,39.1,30.09,WNW,298,8.1,0.0,82,0.00,CLR,CLR,0.00,0.0,WeatherDisplay:10.37,2013-05-20 07:57:00,
2013-05-20 01:02:00,44.2,39.1,30.09,WNW,298,8.1,0.0,82,0.00,CLR,CLR,0.00,0.0,WeatherDisplay:10.37,2013-05-20 08:02:00,
2013-05-20 01:07:00,44.2,39.1,30.09,WNW,298,8.1,0.0,82,0.00,CLR,CLR,0.00,0.0,WeatherDisplay:10.37,2013-05-20 08:07:00,
2013-05-20 01:12:00,44.2,39.1,30.09,WNW,298,8.1,0.0,82,0.00,CLR,CLR,0.00,0.0,WeatherDisplay:10.37,2013-05-20 08:12:00,
2013-05-20 01:17:00,44.2,39.1,30.09,WNW,298,8.1,0.0,82,0.00,CLR,CLR,0.00,0.0,WeatherDisplay:10.37,2013-05-20 08:17:00,
2013-05-20 01:23:00,44.2,39.1,30.09,WNW,298,8.1,0.0,82,0.00,CLR,CLR,0.00,0.0,WeatherDisplay:10.37,2013-05-20 08:23:00,
2013-05-20 01:28:00,44.2,39.1,30.09,WNW,298,8.1,0.0,82,0.00,CLR,CLR,0.00,0.0,WeatherDisplay:10.37,2013-05-20 08:28:00,
2013-05-20 01:33:00,44.2,39.1,30.06,WNW,298,8.1,0.0,82,0.00,CLR,CLR,0.00,0.0,WeatherDisplay:10.37,2013-05-20 08:33:00,
2013-05-20 01:38:00,44.2,39.1,30.06,WNW,298,8.1,0.0,82,0.00,CLR,CLR,0.00,0.0,WeatherDisplay:10.37,2013-05-20 08:38:00,
2013-05-20 01:43:00,44.2,39.1,30.06,WNW,298,8.1,0.0,82,0.00,CLR,CLR,0.00,0.0,WeatherDisplay:10.37,2013-05-20 08:43:00,
2013-05-20 01:48:00,44.2,39.1,30.06,WNW,298,8.1,0.0,82,0.00,CLR,CLR,0.00,0.0,WeatherDisplay:10.37,2013-05-20 08:48:00,
2013-05-20 01:53:00,45.5,40.3,30.06,WNW,298,8.1,0.0,82,0.00,CLR,CLR,0.00,0.0,WeatherDisplay:10.37,2013-05-20 08:53:00,
2013-05-20 01:58:00,45.5,40.3,30.06,NNW,333,8.1,0.0,82,0.00,CLR,CLR,0.00,0.0,WeatherDisplay:10.37,2013-05-20 08:58:00,
2013-05-20 02:03:00,45.5,40.3,30.06,NNW,333,8.1,0.0,82,0.00,CLR,CLR,0.00,0.0,WeatherDisplay:10.37,2013-05-20 09:03:00,
2013-05-20 02:08:00,45.5,40.3,30.06,NNW,333,8.1,0.0,82,0.00,CLR,CLR,0.00,0.0,WeatherDisplay:10.37,2013-05-20 09:08:00,
2013-05-20 02:13:00,45.5,40.3,30.06,NNW,333,8.1,0.0,82,0.00,CLR,CLR,0.00,0.0,WeatherDisplay:10.37,2013-05-20 09:13:00,
2013-05-20 02:19:00,45.5,40.3,30.06,NNW,333,8.1,0.0,82,0.00,CLR,CLR,0.00,0.0,WeatherDisplay:10.37,2013-05-20 09:19:00,
2013-05-20 02:24:00,45.5,40.3,30.06,NNW,333,8.1,0.0,82,0.00,CLR,CLR,0.00,0.0,WeatherDisplay:10.37,2013-05-20 09:24:00,
2013-05-20 02:29:00,45.5,40.3,30.06,NNW,333,8.1,0.0,82,0.00,CLR,CLR,0.00,0.0,WeatherDisplay:10.37,2013-05-20 09:29:00,
2013-05-20 02:34:00,45.5,40.3,30.06,NNW,333,8.1,0.0,82,0.00,CLR,CLR,0.00,0.0,WeatherDisplay:10.37,2013-05-20 09:34:00,
2013-05-20 02:39:00,45.5,40.3,30.06,NNW,333,8.1,0.0,82,0.00,CLR,CLR,0.00,0.0,WeatherDisplay:10.37,2013-05-20 09:39:00,
2013-05-20 02:44:00,45.5,40.3,30.06,NNW,333,8.1,0.0,82,0.00,CLR,CLR,0.00,0.0,WeatherDisplay:10.37,2013-05-20 09:44:00,
2013-05-20 02:49:00,45.5,40.3,30.06,NNW,333,8.1,0.0,82,0.00,CLR,CLR,0.00,0.0,WeatherDisplay:10.37,2013-05-20 09:49:00,
2013-05-20 02:54:00,45.5,40.3,30.06,NNW,333,8.1,0.0,82,0.00,CLR,CLR,0.00,0.0,WeatherDisplay:10.37,2013-05-20 09:54:00,
2013-05-20 02:59:00,45.5,40.3,30.06,NNW,333,8.1,0.0,82,0.00,CLR,CLR,0.00,0.0,WeatherDisplay:10.37,2013-05-20 09:59:00,
2013-05-20 03:04:00,45.1,40.0,30.06,NNW,333,8.1,0.0,82,0.00,CLR,CLR,0.00,0.0,WeatherDisplay:10.37,2013-05-20 10:04:00,
2013-05-20 03:10:00,45.1,40.0,30.06,NNW,339,8.1,0.0,82,0.00,CLR,CLR,0.00,0.0,WeatherDisplay:10.37,2013-05-20 10:10:00,
2013-05-20 03:15:00,45.1,40.0,30.06,NNW,339,8.1,0.0,82,0.00,CLR,CLR,0.00,0.0,WeatherDisplay:10.37,2013-05-20 10:15:00,
2013-05-20 03:20:00,45.1,40.0,30.06,NNW,339,8.1,0.0,82,0.00,CLR,CLR,0.00,0.0,WeatherDisplay:10.37,2013-05-20 10:20:00,
2013-05-20 03:25:00,45.5,40.3,30.06,NNW,339,8.1,0.0,82,0.00,CLR,CLR,0.00,0.0,WeatherDisplay:10.37,2013-05-20 10:25:00,
2013-05-20 03:30:00,45.5,40.3,30.03,NNW,339,8.1,0.0,82,0.00,CLR,CLR,0.00,0.0,WeatherDisplay:10.37,2013-05-20 10:30:00,
2013-05-20 03:35:00,46.0,40.9,30.03,NNW,339,8.1,0.0,82,0.00,CLR,CLR,0.00,0.0,WeatherDisplay:10.37,2013-05-20 10:35:00,
2013-05-20 03:40:00,46.0,40.9,30.03,NNW,339,8.1,0.0,82,0.00,CLR,CLR,0.00,0.0,WeatherDisplay:10.37,2013-05-20 10:40:00,
2013-05-20 03:45:00,46.0,40.9,30.03,NNW,339,8.1,0.0,82,0.00,CLR,CLR,0.00,0.0,WeatherDisplay:10.37,2013-05-20 10:45:00,
2013-05-20 03:51:00,46.0,40.9,30.03,NNW,339,8.1,0.0,82,0.00,CLR,CLR,0.00,0.0,WeatherDisplay:10.37,2013-05-20 10:51:00,
2013-05-20 03:56:00,46.0,40.9,30.03,NNW,339,8.1,0.0,82,0.00,CLR,CLR,0.00,0.0,WeatherDisplay:10.37,2013-05-20 10:56:00,
2013-05-20 04:01:00,50.5,45.2,30.03,NNW,339,8.1,0.0,82,0.00,CLR,CLR,0.00,0.0,WeatherDisplay:10.37,2013-05-20 11:01:00,
2013-05-20 04:06:00,50.5,45.2,30.03,NNW,339,8.1,0.0,82,0.00,CLR,CLR,0.00,0.0,WeatherDisplay:10.37,2013-05-20 11:06:00,
2013-05-20 04:11:00,50.5,45.2,30.03,NNW,339,8.1,0.0,82,0.00,CLR,CLR,0.00,0.0,WeatherDisplay:10.37,2013-05-20 11:11:00,
2013-05-20 04:17:00,46.9,41.7,30.03,NNW,340,8.1,0.0,82,0.00,CLR,CLR,0.00,0.0,WeatherDisplay:10.37,2013-05-20 11:17:00,
2013-05-20 04:21:00,46.9,41.7,30.03,NNW,340,8.1,0.0,82,0.00,CLR,CLR,0.00,0.0,WeatherDisplay:10.37,2013-05-20 11:21:00,
2013-05-20 04:27:00,46.9,41.7,30.03,NNW,340,8.1,0.0,82,0.00,CLR,CLR,0.00,0.0,WeatherDisplay:10.37,2013-05-20 11:27:00,
2013-05-20 04:32:00,46.9,41.7,30.03,NNW,340,8.1,0.0,82,0.00,CLR,CLR,0.00,0.0,WeatherDisplay:10.37,2013-05-20 11:32:00,
2013-05-20 04:37:00,46.9,41.7,30.03,NNW,340,8.1,0.0,82,0.00,CLR,CLR,0.00,0.0,WeatherDisplay:10.37,2013-05-20 11:37:00,
2013-05-20 04:42:00,46.9,41.7,30.03,NNW,340,8.1,0.0,82,0.00,CLR,CLR,0.00,0.0,WeatherDisplay:10.37,2013-05-20 11:42:00,
2013-05-20 04:47:00,46.9,41.7,30.03,NNW,340,8.1,0.0,82,0.00,CLR,CLR,0.00,0.0,WeatherDisplay:10.37,2013-05-20 11:47:00,
2013-05-20 04:52:00,46.9,41.7,30.03,NNW,340,8.1,0.0,82,0.00,CLR,CLR,0.00,0.0,WeatherDisplay:10.37,2013-05-20 11:52:00,
2013-05-20 04:57:00,46.9,41.7,30.03,NNW,340,8.1,0.0,82,0.00,CLR,CLR,0.00,0.0,WeatherDisplay:10.37,2013-05-20 11:57:00,
2013-05-20 05:02:00,46.9,41.7,30.03,NNW,340,8.1,0.0,82,0.00,CLR,CLR,0.00,0.0,WeatherDisplay:10.37,2013-05-20 12:02:00,
2013-05-20 05:08:00,46.9,41.7,30.03,NNW,340,8.1,0.0,82,0.00,CLR,CLR,0.00,0.0,WeatherDisplay:10.37,2013-05-20 12:08:00,
2013-05-20 05:13:00,46.9,41.7,30.03,NNW,340,8.1,0.0,82,0.00,CLR,CLR,0.00,0.0,WeatherDisplay:10.37,2013-05-20 12:13:00,
2013-05-20 05:18:00,46.9,41.7,30.00,NNW,340,8.1,0.0,82,0.00,CLR,CLR,0.00,0.0,WeatherDisplay:10.37,2013-05-20 12:18:00,
2013-05-20 05:23:00,46.9,41.7,30.00,NNW,340,8.1,0.0,82,0.00,CLR,CLR,0.00,0.0,WeatherDisplay:10.37,2013-05-20 12:23:00,
2013-05-20 05:28:00,46.9,41.7,30.00,NNW,340,8.1,0.0,82,0.00,CLR,CLR,0.00,0.0,WeatherDisplay:10.37,2013-05-20 12:28:00,
2013-05-20 05:33:00,46.9,41.7,30.00,NNW,340,8.1,0.0,82,0.00,CLR,CLR,0.00,0.0,WeatherDisplay:10.37,2013-05-20 12:33:00,
2013-05-20 05:38:00,46.9,41.7,30.00,NNW,340,8.1,0.0,82,0.00,CLR,CLR,0.00,0.0,WeatherDisplay:10.37,2013-05-20 12:38:00,
2013-05-20 05:43:00,48.0,42.8,30.00,NNW,340,8.1,0.0,82,0.00,CLR,CLR,0.00,0.0,WeatherDisplay:10.37,2013-05-20 12:43:00,
2013-05-20 05:48:00,48.0,42.8,30.00,NNW,340,8.1,0.0,82,0.00,CLR,CLR,0.00,0.0,WeatherDisplay:10.37,2013-05-20 12:48:00,
2013-05-20 05:53:00,48.0,42.8,30.00,NNW,340,8.1,0.0,82,0.00,CLR,CLR,0.00,0.0,WeatherDisplay:10.37,2013-05-20 12:53:00,
2013-05-20 05:58:00,48.0,42.8,30.00,NNW,340,8.1,0.0,82,0.00,CLR,CLR,0.00,0.0,WeatherDisplay:10.37,2013-05-20 12:58:00,
2013-05-20 06:03:00,48.0,42.8,30.00,East,79,8.1,0.0,82,0.00,CLR,CLR,0.00,0.0,WeatherDisplay:10.37,2013-05-20 13:03:00,
2013-05-20 06:08:00,48.0,42.8,30.00,East,79,8.1,0.0,82,0.00,CLR,CLR,0.00,0.0,WeatherDisplay:10.37,2013-05-20 13:08:00,
2013-05-20 06:13:00,48.0,42.8,30.00,East,79,8.1,0.0,82,0.00,CLR,CLR,0.00,0.0,WeatherDisplay:10.37,2013-05-20 13:13:00,
2013-05-20 06:18:00,48.0,42.8,30.00,East,79,8.1,0.0,82,0.00,CLR,CLR,0.00,0.0,WeatherDisplay:10.37,2013-05-20 13:18:00,
2013-05-20 06:24:00,48.0,42.8,30.00,East,79,8.1,0.0,82,0.00,CLR,CLR,0.00,0.0,WeatherDisplay:10.37,2013-05-20 13:24:00,
2013-05-20 06:29:00,48.0,42.8,29.97,East,79,8.1,0.0,82,0.00,CLR,CLR,0.00,0.0,WeatherDisplay:10.37,2013-05-20 13:29:00,
2013-05-20 06:34:00,48.0,42.8,29.97,East,79,8.1,0.0,82,0.00,CLR,CLR,0.00,0.0,WeatherDisplay:10.37,2013-05-20 13:34:00,
2013-05-20 06:39:00,48.0,42.8,29.97,East,79,8.1,0.0,82,0.00,CLR,CLR,0.00,0.0,WeatherDisplay:10.37,2013-05-20 13:39:00,
2013-05-20 06:44:00,48.0,42.8,30.00,East,79,8.1,0.0,82,0.00,CLR,CLR,0.00,0.0,WeatherDisplay:10.37,2013-05-20 13:44:00,
2013-05-20 06:49:00,48.0,42.8,30.00,East,79,8.1,0.0,82,0.00,CLR,CLR,0.00,0.0,WeatherDisplay:10.37,2013-05-20 13:49:00,
2013-05-20 06:54:00,48.0,42.8,30.00,East,79,8.1,0.0,82,0.00,CLR,CLR,0.00,0.0,WeatherDisplay:10.37,2013-05-20 13:54:00,
2013-05-20 06:59:00,48.0,42.8,30.00,East,79,8.1,0.0,82,0.00,CLR,CLR,0.00,0.0,WeatherDisplay:10.37,2013-05-20 13:59:00,
2013-05-20 07:05:00,48.0,42.8,30.00,East,79,8.1,0.0,82,0.00,CLR,CLR,0.00,0.0,WeatherDisplay:10.37,2013-05-20 14:05:00,
2013-05-20 07:10:00,48.0,42.8,30.00,East,79,8.1,0.0,82,0.00,CLR,CLR,0.00,0.0,WeatherDisplay:10.37,2013-05-20 14:10:00,
2013-05-20 07:15:00,48.0,42.8,30.00,East,79,8.1,0.0,82,0.00,CLR,CLR,0.00,0.0,WeatherDisplay:10.37,2013-05-20 14:15:00,
2013-05-20 07:20:00,48.0,42.8,30.00,East,79,8.1,0.0,82,0.00,CLR,CLR,0.00,0.0,WeatherDisplay:10.37,2013-05-20 14:20:00,
2013-05-20 07:25:00,48.0,42.8,30.00,East,79,8.1,0.0,82,0.00,CLR,CLR,0.00,0.0,WeatherDisplay:10.37,2013-05-20 14:25:00,
2013-05-20 07:30:00,48.0,42.8,30.00,East,79,8.1,0.0,82,0.00,CLR,CLR,0.00,0.0,WeatherDisplay:10.37,2013-05-20 14:30:00,
2013-05-20 07:35:00,48.0,42.8,30.00,East,79,8.1,0.0,82,0.00,CLR,CLR,0.00,0.0,WeatherDisplay:10.37,2013-05-20 14:35:00,
2013-05-20 07:41:00,48.0,42.8,30.00,East,79,8.1,0.0,82,0.00,CLR,CLR,0.00,0.0,WeatherDisplay:10.37,2013-05-20 14:41:00,
2013-05-20 07:46:00,48.0,42.8,29.97,East,79,8.1,0.0,82,0.00,CLR,CLR,0.00,0.0,WeatherDisplay:10.37,2013-05-20 14:46:00,
2013-05-20 07:51:00,48.0,42.8,29.97,East,79,8.1,0.0,82,0.00,CLR,CLR,0.00,0.0,WeatherDisplay:10.37,2013-05-20 14:51:00,
2013-05-20 07:56:00,48.0,42.8,29.97,East,79,8.1,0.0,82,0.00,CLR,CLR,0.00,0.0,WeatherDisplay:10.37,2013-05-20 14:56:00,
2013-05-20 08:01:00,51.4,45.5,29.97,East,79,8.1,0.0,80,0.00,CLR,CLR,0.00,0.0,WeatherDisplay:10.37,2013-05-20 15:01:00,
2013-05-20 08:06:00,51.4,45.5,29.97,East,79,8.1,0.0,80,0.00,CLR,CLR,0.00,0.0,WeatherDisplay:10.37,2013-05-20 15:06:00,
2013-05-20 08:11:00,51.8,45.5,29.97,NNE,25,8.1,0.0,79,0.00,CLR,CLR,0.00,0.0,WeatherDisplay:10.37,2013-05-20 15:11:00,
2013-05-20 08:16:00,51.8,45.5,29.97,NNE,25,8.1,0.0,79,0.00,CLR,CLR,0.00,0.0,WeatherDisplay:10.37,2013-05-20 15:16:00,
2013-05-20 08:21:00,51.8,45.5,29.97,NNE,25,8.1,0.0,79,0.00,CLR,CLR,0.00,0.0,WeatherDisplay:10.37,2013-05-20 15:21:00,
2013-05-20 08:26:00,51.8,45.5,29.97,NNE,25,8.1,0.0,79,0.00,CLR,CLR,0.00,0.0,WeatherDisplay:10.37,2013-05-20 15:26:00,
2013-05-20 08:31:00,51.8,45.5,29.97,NNE,25,8.1,0.0,79,0.00,CLR,CLR,0.00,0.0,WeatherDisplay:10.37,2013-05-20 15:31:00,
2013-05-20 08:36:00,51.8,45.5,29.97,NNE,25,8.1,0.0,79,0.00,CLR,CLR,0.00,0.0,WeatherDisplay:10.37,2013-05-20 15:36:00,
2013-05-20 08:41:00,51.8,45.5,29.97,NNE,25,8.1,0.0,79,0.00,CLR,CLR,0.00,0.0,WeatherDisplay:10.37,2013-05-20 15:41:00,
2013-05-20 08:46:00,53.4,45.7,29.97,NNE,25,8.1,0.0,75,0.00,CLR,CLR,0.00,0.0,WeatherDisplay:10.37,2013-05-20 15:46:00,
2013-05-20 08:51:00,53.4,45.7,29.97,NNE,25,8.1,0.0,75,0.00,CLR,CLR,0.00,0.0,WeatherDisplay:10.37,2013-05-20 15:51:00,
2013-05-20 08:56:00,53.4,45.7,29.97,NNE,25,8.1,0.0,75,0.00,CLR,CLR,0.00,0.0,WeatherDisplay:10.37,2013-05-20 15:56:00,
2013-05-20 09:01:00,53.4,45.7,29.97,NNE,25,8.1,0.0,75,0.00,CLR,CLR,0.00,0.0,WeatherDisplay:10.37,2013-05-20 16:01:00,
2013-05-20 09:06:00,53.4,45.7,29.97,NNE,25,8.1,0.0,75,0.00,CLR,CLR,0.00,0.0,WeatherDisplay:10.37,2013-05-20 16:06:00,
2013-05-20 09:12:00,53.4,45.7,29.97,NNE,25,8.1,0.0,75,0.00,CLR,CLR,0.00,0.0,WeatherDisplay:10.37,2013-05-20 16:12:00,
2013-05-20 09:17:00,53.4,45.7,29.97,ESE,102,8.1,0.0,75,0.00,CLR,CLR,0.00,0.0,WeatherDisplay:10.37,2013-05-20 16:17:00,
2013-05-20 09:22:00,54.9,45.3,29.97,ESE,102,8.1,0.0,70,0.00,CLR,CLR,0.00,0.0,WeatherDisplay:10.37,2013-05-20 16:22:00,
2013-05-20 09:27:00,54.5,42.6,29.97,NNE,25,8.1,0.0,64,0.00,CLR,CLR,0.00,0.0,WeatherDisplay:10.37,2013-05-20 16:27:00,
2013-05-20 09:32:00,54.5,42.6,29.97,NNE,25,8.1,0.0,64,0.00,CLR,CLR,0.00,0.0,WeatherDisplay:10.37,2013-05-20 16:32:00,
2013-05-20 09:37:00,54.5,42.6,29.97,NNE,25,8.1,0.0,64,0.00,CLR,CLR,0.00,0.0,WeatherDisplay:10.37,2013-05-20 16:37:00,
2013-05-20 09:43:00,54.5,42.6,29.97,NNE,25,8.1,0.0,64,0.00,CLR,CLR,0.00,0.0,WeatherDisplay:10.37,2013-05-20 16:43:00,
2013-05-20 09:48:00,54.5,42.6,29.97,NNE,25,8.1,0.0,64,0.00,CLR,CLR,0.00,0.0,WeatherDisplay:10.37,2013-05-20 16:48:00,
2013-05-20 09:53:00,54.5,42.6,29.97,NNE,25,8.1,0.0,64,0.00,CLR,CLR,0.00,0.0,WeatherDisplay:10.37,2013-05-20 16:53:00,
2013-05-20 09:58:00,54.5,42.6,29.94,NNE,25,8.1,0.0,64,0.00,CLR,CLR,0.00,0.0,WeatherDisplay:10.37,2013-05-20 16:58:00,
2013-05-20 10:03:00,54.5,42.6,29.94,NNE,25,8.1,0.0,64,0.00,CLR,CLR,0.00,0.0,WeatherDisplay:10.37,2013-05-20 17:03:00,
2013-05-20 10:08:00,54.5,42.6,29.94,NNE,25,8.1,0.0,64,0.00,CLR,CLR,0.00,0.0,WeatherDisplay:10.37,2013-05-20 17:08:00,
2013-05-20 10:13:00,54.5,42.6,29.94,NNE,25,8.1,0.0,64,0.00,CLR,CLR,0.00,0.0,WeatherDisplay:10.37,2013-05-20 17:13:00,
2013-05-20 10:18:00,55.4,38.5,29.94,NNE,25,8.1,0.0,53,0.00,CLR,CLR,0.00,0.0,WeatherDisplay:10.37,2013-05-20 17:18:00,
2013-05-20 10:23:00,55.4,38.5,29.94,NNE,25,8.1,0.0,53,0.00,CLR,CLR,0.00,0.0,WeatherDisplay:10.37,2013-05-20 17:23:00,
2013-05-20 10:28:00,56.3,40.8,29.94,SW,221,8.1,0.0,56,0.00,CLR,CLR,0.00,0.0,WeatherDisplay:10.37,2013-05-20 17:28:00,
2013-05-20 10:33:00,56.3,40.8,29.94,SW,221,8.1,0.0,56,0.00,CLR,CLR,0.00,0.0,WeatherDisplay:10.37,2013-05-20 17:33:00,
2013-05-20 10:38:00,56.5,37.0,29.94,SW,221,8.1,0.0,48,0.00,CLR,CLR,0.00,0.0,WeatherDisplay:10.37,2013-05-20 17:38:00,
2013-05-20 10:43:00,56.5,37.0,29.94,SW,221,8.1,0.0,48,0.00,CLR,CLR,0.00,0.0,WeatherDisplay:10.37,2013-05-20 17:43:00,
2013-05-20 10:48:00,56.5,37.0,29.94,SW,221,8.1,0.0,48,0.00,CLR,CLR,0.00,0.0,WeatherDisplay:10.37,2013-05-20 17:48:00,
2013-05-20 10:53:00,56.5,37.0,29.94,SW,221,8.1,0.0,48,0.00,CLR,CLR,0.00,0.0,WeatherDisplay:10.37,2013-05-20 17:53:00,
2013-05-20 10:58:00,56.5,37.0,29.94,SW,221,8.1,0.0,48,0.00,CLR,CLR,0.00,0.0,WeatherDisplay:10.37,2013-05-20 17:58:00,
2013-05-20 11:03:00,56.5,37.0,29.94,SW,221,8.1,0.0,48,0.00,CLR,CLR,0.00,0.0,WeatherDisplay:10.37,2013-05-20 18:03:00,
2013-05-20 11:08:00,56.5,37.0,29.94,North,0,8.1,0.0,48,0.00,CLR,CLR,0.00,0.0,WeatherDisplay:10.37,2013-05-20 18:08:00,
2013-05-20 11:13:00,57.4,36.8,29.94,North,0,8.1,0.0,46,0.00,CLR,CLR,0.00,0.0,WeatherDisplay:10.37,2013-05-20 18:13:00,
2013-05-20 11:19:00,57.4,36.8,29.94,North,0,8.1,0.0,46,0.00,CLR,CLR,0.00,0.0,WeatherDisplay:10.37,2013-05-20 18:19:00,
2013-05-20 11:24:00,57.4,36.8,29.94,North,0,8.1,0.0,46,0.00,CLR,CLR,0.00,0.0,WeatherDisplay:10.37,2013-05-20 18:24:00,
2013-05-20 11:29:00,57.4,36.8,29.94,North,0,8.1,0.0,46,0.00,CLR,CLR,0.00,0.0,WeatherDisplay:10.37,2013-05-20 18:29:00,
2013-05-20 11:34:00,57.4,36.8,29.94,North,0,8.1,0.0,46,0.00,CLR,CLR,0.00,0.0,WeatherDisplay:10.37,2013-05-20 18:34:00,
2013-05-20 11:39:00,57.4,36.8,29.94,North,0,8.1,0.0,46,0.00,CLR,CLR,0.00,0.0,WeatherDisplay:10.37,2013-05-20 18:39:00,
2013-05-20 11:44:00,57.4,36.8,29.94,North,0,8.1,0.0,46,0.00,CLR,CLR,0.00,0.0,WeatherDisplay:10.37,2013-05-20 18:44:00,
2013-05-20 11:49:00,57.4,36.8,29.94,North,0,8.1,0.0,46,0.00,CLR,CLR,0.00,0.0,WeatherDisplay:10.37,2013-05-20 18:49:00,
2013-05-20 11:54:00,57.4,36.8,29.94,North,0,8.1,0.0,46,0.00,CLR,CLR,0.00,0.0,WeatherDisplay:10.37,2013-05-20 18:54:00,
2013-05-20 11:59:00,57.4,36.8,29.94,North,0,8.1,0.0,46,0.00,CLR,CLR,0.00,0.0,WeatherDisplay:10.37,2013-05-20 18:59:00,
2013-05-20 12:05:00,57.4,36.8,29.94,North,0,8.1,0.0,46,0.00,CLR,CLR,0.00,0.0,WeatherDisplay:10.37,2013-05-20 19:05:00,
2013-05-20 12:10:00,57.4,36.8,29.94,North,0,8.1,0.0,46,0.00,CLR,CLR,0.00,0.0,WeatherDisplay:10.37,2013-05-20 19:10:00,
2013-05-20 12:15:00,57.4,36.8,29.94,North,0,8.1,0.0,46,0.00,CLR,CLR,0.00,0.0,WeatherDisplay:10.37,2013-05-20 19:15:00,
2013-05-20 12:20:00,57.4,36.8,29.94,North,0,8.1,0.0,46,0.00,CLR,CLR,0.00,0.0,WeatherDisplay:10.37,2013-05-20 19:20:00,
2013-05-20 12:25:00,57.4,36.8,29.94,North,0,8.1,0.0,46,0.00,CLR,CLR,0.00,0.0,WeatherDisplay:10.37,2013-05-20 19:25:00,
2013-05-20 12:30:00,57.4,36.8,29.94,North,0,8.1,0.0,46,0.00,CLR,CLR,0.00,0.0,WeatherDisplay:10.37,2013-05-20 19:30:00,
2013-05-20 12:35:00,57.4,36.8,29.94,North,0,8.1,0.0,46,0.00,CLR,CLR,0.00,0.0,WeatherDisplay:10.37,2013-05-20 19:35:00,
2013-05-20 12:41:00,57.4,36.8,29.94,North,0,8.1,0.0,46,0.00,CLR,CLR,0.00,0.0,WeatherDisplay:10.37,2013-05-20 19:41:00,
2013-05-20 12:46:00,57.4,36.8,29.94,North,0,8.1,0.0,46,0.00,CLR,CLR,0.00,0.0,WeatherDisplay:10.37,2013-05-20 19:46:00,
2013-05-20 12:51:00,57.4,36.8,29.94,North,0,8.1,0.0,46,0.00,CLR,CLR,0.00,0.0,WeatherDisplay:10.37,2013-05-20 19:51:00,
2013-05-20 12:56:00,57.4,36.8,29.94,North,0,8.1,0.0,46,0.00,CLR,CLR,0.00,0.0,WeatherDisplay:10.37,2013-05-20 19:56:00,
2013-05-20 13:01:00,57.4,36.8,29.94,North,0,8.1,0.0,46,0.00,CLR,CLR,0.00,0.0,WeatherDisplay:10.37,2013-05-20 20:01:00,
2013-05-20 13:06:00,57.4,36.8,29.94,North,0,8.1,0.0,46,0.00,CLR,CLR,0.00,0.0,WeatherDisplay:10.37,2013-05-20 20:06:00,
2013-05-20 13:11:00,57.4,36.8,29.94,North,0,8.1,0.0,46,0.00,CLR,CLR,0.00,0.0,WeatherDisplay:10.37,2013-05-20 20:11:00,
2013-05-20 13:17:00,56.5,35.4,29.94,North,0,8.1,0.0,45,0.00,CLR,CLR,0.00,0.0,WeatherDisplay:10.37,2013-05-20 20:17:00,
2013-05-20 13:22:00,56.5,35.9,29.94,North,0,8.1,0.0,46,0.00,CLR,CLR,0.00,0.0,WeatherDisplay:10.37,2013-05-20 20:22:00,
2013-05-20 13:27:00,56.5,35.9,29.94,North,0,8.1,0.0,46,0.00,CLR,CLR,0.00,0.0,WeatherDisplay:10.37,2013-05-20 20:27:00,
2013-05-20 13:32:00,56.5,35.9,29.94,North,0,8.1,0.0,46,0.00,CLR,CLR,0.00,0.0,WeatherDisplay:10.37,2013-05-20 20:32:00,
2013-05-20 13:37:00,56.3,36.3,29.94,North,0,8.1,0.0,47,0.00,CLR,CLR,0.00,0.0,WeatherDisplay:10.37,2013-05-20 20:37:00,
2013-05-20 13:42:00,56.3,36.3,29.91,North,0,8.1,0.0,47,0.00,CLR,CLR,0.00,0.0,WeatherDisplay:10.37,2013-05-20 20:42:00,
2013-05-20 13:47:00,56.3,36.3,29.91,North,0,8.1,0.0,47,0.00,CLR,CLR,0.00,0.0,WeatherDisplay:10.37,2013-05-20 20:47:00,
2013-05-20 13:52:00,56.3,36.3,29.91,North,0,8.1,0.0,47,0.00,CLR,CLR,0.00,0.0,WeatherDisplay:10.37,2013-05-20 20:52:00,
2013-05-20 13:58:00,56.3,36.3,29.91,North,0,8.1,0.0,47,0.00,CLR,CLR,0.00,0.0,WeatherDisplay:10.37,2013-05-20 20:58:00,
2013-05-20 14:03:00,56.3,36.3,29.91,North,0,8.1,0.0,47,0.00,CLR,CLR,0.00,0.0,WeatherDisplay:10.37,2013-05-20 21:03:00,
2013-05-20 14:08:00,56.3,36.3,29.91,North,0,8.1,0.0,47,0.00,CLR,CLR,0.00,0.0,WeatherDisplay:10.37,2013-05-20 21:08:00,
2013-05-20 14:13:00,56.3,36.3,29.91,North,0,8.1,0.0,47,0.00,CLR,CLR,0.00,0.0,WeatherDisplay:10.37,2013-05-20 21:13:00,
2013-05-20 14:18:00,56.3,36.3,29.91,North,0,8.1,0.0,47,0.00,CLR,CLR,0.00,0.0,WeatherDisplay:10.37,2013-05-20 21:18:00,
2013-05-20 14:24:00,56.3,36.3,29.91,West,274,8.1,8.1,47,0.00,CLR,CLR,0.00,0.0,WeatherDisplay:10.37,2013-05-20 21:24:00,
2013-05-20 14:29:00,56.3,36.3,29.91,West,274,8.1,8.1,47,0.00,CLR,CLR,0.00,0.0,WeatherDisplay:10.37,2013-05-20 21:29:00,
2013-05-20 14:34:00,56.3,36.3,29.91,West,274,8.1,8.1,47,0.00,CLR,CLR,0.00,0.0,WeatherDisplay:10.37,2013-05-20 21:34:00,
2013-05-20 14:40:00,56.3,36.3,29.91,West,274,8.1,8.1,47,0.00,CLR,CLR,0.00,0.0,WeatherDisplay:10.37,2013-05-20 21:40:00,
2013-05-20 14:45:00,56.3,36.3,29.91,West,274,8.1,8.1,47,0.00,CLR,CLR,0.00,0.0,WeatherDisplay:10.37,2013-05-20 21:45:00,
2013-05-20 14:50:00,56.3,36.3,29.91,West,274,8.1,8.1,47,0.00,CLR,CLR,0.00,0.0,WeatherDisplay:10.37,2013-05-20 21:50:00,
2013-05-20 14:55:00,56.3,36.3,29.91,West,274,8.1,8.1,47,0.00,CLR,CLR,0.00,0.0,WeatherDisplay:10.37,2013-05-20 21:55:00,
2013-05-20 15:00:00,56.3,36.3,29.91,West,274,8.1,8.1,47,0.00,CLR,CLR,0.00,0.0,WeatherDisplay:10.37,2013-05-20 22:00:00,
2013-05-20 15:06:00,56.3,36.3,29.91,West,274,8.1,8.1,47,0.00,CLR,CLR,0.00,0.0,WeatherDisplay:10.37,2013-05-20 22:06:00,
2013-05-20 15:11:00,56.3,36.3,29.91,West,274,8.1,8.1,47,0.00,CLR,CLR,0.00,0.0,WeatherDisplay:10.37,2013-05-20 22:11:00,
2013-05-20 15:16:00,56.3,36.3,29.88,West,274,8.1,8.1,47,0.00,CLR,CLR,0.00,0.0,WeatherDisplay:10.37,2013-05-20 22:16:00,
2013-05-20 15:21:00,56.3,36.3,29.88,NNW,340,8.1,0.0,47,0.00,CLR,CLR,0.00,0.0,WeatherDisplay:10.37,2013-05-20 22:21:00,
2013-05-20 15:26:00,56.3,36.3,29.88,NNW,340,8.1,0.0,47,0.00,CLR,CLR,0.00,0.0,WeatherDisplay:10.37,2013-05-20 22:26:00,
2013-05-20 15:32:00,56.3,36.3,29.88,NNW,340,8.1,0.0,47,0.00,CLR,CLR,0.00,0.0,WeatherDisplay:10.37,2013-05-20 22:32:00,
2013-05-20 15:37:00,56.3,36.3,29.88,NNW,340,8.1,0.0,47,0.00,CLR,CLR,0.00,0.0,WeatherDisplay:10.37,2013-05-20 22:37:00,
2013-05-20 15:42:00,56.3,36.3,29.88,NNW,340,8.1,0.0,47,0.00,CLR,CLR,0.00,0.0,WeatherDisplay:10.37,2013-05-20 22:42:00,
2013-05-20 15:47:00,56.3,36.3,29.88,NNW,340,8.1,0.0,47,0.00,CLR,CLR,0.00,0.0,WeatherDisplay:10.37,2013-05-20 22:47:00,
2013-05-20 15:52:00,56.3,36.3,29.88,North,0,8.1,0.0,47,0.00,CLR,CLR,0.00,0.0,WeatherDisplay:10.37,2013-05-20 22:52:00,
2013-05-20 15:57:00,56.3,36.3,29.88,North,0,8.1,0.0,47,0.00,CLR,CLR,0.00,0.0,WeatherDisplay:10.37,2013-05-20 22:57:00,
2013-05-20 16:02:00,56.3,36.3,29.88,North,0,8.1,0.0,47,0.00,CLR,CLR,0.00,0.0,WeatherDisplay:10.37,2013-05-20 23:02:00,
2013-05-20 16:08:00,56.3,36.3,29.88,North,0,8.1,0.0,47,0.00,CLR,CLR,0.00,0.0,WeatherDisplay:10.37,2013-05-20 23:08:00,
2013-05-20 16:13:00,56.3,36.3,29.88,North,0,8.1,0.0,47,0.00,CLR,CLR,0.00,0.0,WeatherDisplay:10.37,2013-05-20 23:13:00,
2013-05-20 16:18:00,56.3,36.3,29.88,North,0,8.1,0.0,47,0.00,CLR,CLR,0.00,0.0,WeatherDisplay:10.37,2013-05-20 23:18:00,
2013-05-20 16:23:00,56.3,36.3,29.88,North,0,8.1,0.0,47,0.00,CLR,CLR,0.00,0.0,WeatherDisplay:10.37,2013-05-20 23:23:00,
2013-05-20 16:28:00,56.3,36.3,29.88,North,0,8.1,0.0,47,0.00,CLR,CLR,0.00,0.0,WeatherDisplay:10.37,2013-05-20 23:28:00,
2013-05-20 16:34:00,56.3,36.3,29.88,North,0,8.1,0.0,47,0.00,CLR,CLR,0.00,0.0,WeatherDisplay:10.37,2013-05-20 23:34:00,
2013-05-20 16:39:00,56.3,36.3,29.88,North,0,8.1,0.0,47,0.00,CLR,CLR,0.00,0.0,WeatherDisplay:10.37,2013-05-20 23:39:00,
2013-05-20 16:44:00,56.3,36.3,29.85,North,0,8.1,0.0,47,0.00,CLR,CLR,0.00,0.0,WeatherDisplay:10.37,2013-05-20 23:44:00,
2013-05-20 16:49:00,56.3,36.3,29.85,North,0,8.1,0.0,47,0.00,CLR,CLR,0.00,0.0,WeatherDisplay:10.37,2013-05-20 23:49:00,
2013-05-20 16:54:00,56.3,36.3,29.85,North,0,8.1,0.0,47,0.00,CLR,CLR,0.00,0.0,WeatherDisplay:10.37,2013-05-20 23:54:00,
2013-05-20 16:59:00,56.3,36.3,29.85,North,0,8.1,0.0,47,0.00,CLR,CLR,0.00,0.0,WeatherDisplay:10.37,2013-05-20 23:59:00,
2013-05-20 17:04:00,56.3,36.3,29.85,North,0,8.1,0.0,47,0.00,CLR,CLR,0.00,0.0,WeatherDisplay:10.37,2013-05-21 00:04:00,
2013-05-20 17:10:00,56.3,36.3,29.85,North,0,8.1,0.0,47,0.00,CLR,CLR,0.00,0.0,WeatherDisplay:10.37,2013-05-21 00:10:00,
2013-05-20 17:15:00,56.3,36.3,29.85,North,0,8.1,0.0,47,0.00,CLR,CLR,0.00,0.0,WeatherDisplay:10.37,2013-05-21 00:15:00,
2013-05-20 17:20:00,56.3,36.3,29.85,North,0,8.1,0.0,47,0.00,CLR,CLR,0.00,0.0,WeatherDisplay:10.37,2013-05-21 00:20:00,
2013-05-20 17:25:00,56.3,36.3,29.85,North,0,8.1,0.0,47,0.00,CLR,CLR,0.00,0.0,WeatherDisplay:10.37,2013-05-21 00:25:00,
2013-05-20 17:30:00,53.1,35.9,29.85,North,0,8.1,0.0,52,0.00,CLR,CLR,0.00,0.0,WeatherDisplay:10.37,2013-05-21 00:30:00,
2013-05-20 17:35:00,53.1,35.9,29.85,North,0,8.1,0.0,52,0.00,CLR,CLR,0.00,0.0,WeatherDisplay:10.37,2013-05-21 00:35:00,
2013-05-20 17:40:00,53.1,35.9,29.85,North,0,8.1,0.0,52,0.00,CLR,CLR,0.00,0.0,WeatherDisplay:10.37,2013-05-21 00:40:00,
2013-05-20 17:45:00,53.1,35.9,29.83,North,0,8.1,0.0,52,0.00,CLR,CLR,0.00,0.0,WeatherDisplay:10.37,2013-05-21 00:45:00,
2013-05-20 17:51:00,52.0,38.9,29.83,West,276,8.1,8.1,61,0.00,CLR,CLR,0.00,0.0,WeatherDisplay:10.37,2013-05-21 00:51:00,
2013-05-20 17:56:00,52.0,38.9,29.83,West,276,8.1,8.1,61,0.00,CLR,CLR,0.00,0.0,WeatherDisplay:10.37,2013-05-21 00:56:00,
2013-05-20 18:01:00,51.8,40.4,29.83,West,276,8.1,8.1,65,0.00,CLR,CLR,0.00,0.0,WeatherDisplay:10.37,2013-05-21 01:01:00,
2013-05-20 18:06:00,51.8,40.4,29.83,West,276,8.1,8.1,65,0.00,CLR,CLR,0.00,0.0,WeatherDisplay:10.37,2013-05-21 01:06:00,
2013-05-20 18:11:00,51.8,40.4,29.83,West,276,8.1,8.1,65,0.00,CLR,CLR,0.00,0.0,WeatherDisplay:10.37,2013-05-21 01:11:00,
2013-05-20 18:16:00,51.8,40.4,29.83,West,276,8.1,8.1,65,0.00,CLR,CLR,0.00,0.0,WeatherDisplay:10.37,2013-05-21 01:16:00,
2013-05-20 18:22:00,51.8,40.4,29.83,West,276,8.1,8.1,65,0.00,CLR,CLR,0.00,0.0,WeatherDisplay:10.37,2013-05-21 01:22:00,
2013-05-20 18:27:00,51.8,40.4,29.83,West,276,8.1,8.1,65,0.00,CLR,CLR,0.04,0.0,WeatherDisplay:10.37,2013-05-21 01:27:00,
2013-05-20 18:32:00,51.8,40.4,29.83,West,276,8.1,8.1,65,0.00,CLR,CLR,0.04,0.0,WeatherDisplay:10.37,2013-05-21 01:32:00,
2013-05-20 18:37:00,51.8,40.4,29.83,West,276,8.1,8.1,65,0.00,CLR,CLR,0.04,0.0,WeatherDisplay:10.37,2013-05-21 01:37:00,
2013-05-20 18:42:00,51.8,40.4,29.83,North,357,8.1,0.0,65,0.00,CLR,CLR,0.04,0.0,WeatherDisplay:10.37,2013-05-21 01:42:00,
2013-05-20 18:47:00,51.8,40.4,29.83,North,357,8.1,0.0,65,0.00,CLR,CLR,0.04,0.0,WeatherDisplay:10.37,2013-05-21 01:47:00,
2013-05-20 18:52:00,51.8,40.4,29.83,North,357,8.1,0.0,65,0.00,CLR,CLR,0.04,0.0,WeatherDisplay:10.37,2013-05-21 01:52:00,
2013-05-20 18:57:00,51.8,40.4,29.83,North,357,8.1,0.0,65,0.00,CLR,CLR,0.04,0.0,WeatherDisplay:10.37,2013-05-21 01:57:00,
2013-05-20 19:02:00,51.4,42.3,29.83,North,357,8.1,0.0,71,0.00,CLR,CLR,0.04,0.0,WeatherDisplay:10.37,2013-05-21 02:02:00,
2013-05-20 19:07:00,51.4,42.3,29.83,North,357,8.1,0.0,71,0.00,CLR,CLR,0.04,0.0,WeatherDisplay:10.37,2013-05-21 02:07:00,
2013-05-20 19:12:00,51.4,42.7,29.80,North,357,8.1,0.0,72,0.00,CLR,CLR,0.04,0.0,WeatherDisplay:10.37,2013-05-21 02:12:00,
2013-05-20 19:17:00,51.4,42.7,29.80,North,357,8.1,0.0,72,0.00,CLR,CLR,0.04,0.0,WeatherDisplay:10.37,2013-05-21 02:17:00,
2013-05-20 19:23:00,51.4,42.7,29.80,North,357,8.1,0.0,72,0.00,CLR,CLR,0.04,0.0,WeatherDisplay:10.37,2013-05-21 02:23:00,
2013-05-20 19:28:00,51.4,42.7,29.80,North,357,8.1,0.0,72,0.00,CLR,CLR,0.04,0.0,WeatherDisplay:10.37,2013-05-21 02:28:00,
2013-05-20 19:33:00,51.4,42.7,29.80,North,357,8.1,0.0,72,0.00,CLR,CLR,0.04,0.0,WeatherDisplay:10.37,2013-05-21 02:33:00,
2013-05-20 19:38:00,51.4,42.7,29.80,North,357,8.1,0.0,72,0.00,CLR,CLR,0.04,0.0,WeatherDisplay:10.37,2013-05-21 02:38:00,
2013-05-20 19:43:00,51.4,42.7,29.80,North,357,8.1,0.0,72,0.00,CLR,CLR,0.04,0.0,WeatherDisplay:10.37,2013-05-21 02:43:00,
2013-05-20 19:48:00,51.4,42.7,29.80,North,357,8.1,0.0,72,0.00,CLR,CLR,0.04,0.0,WeatherDisplay:10.37,2013-05-21 02:48:00,
2013-05-20 19:54:00,51.4,42.7,29.80,North,357,8.1,0.0,72,0.00,CLR,CLR,0.04,0.0,WeatherDisplay:10.37,2013-05-21 02:54:00,
2013-05-20 19:59:00,51.4,42.7,29.80,North,357,8.1,0.0,72,0.00,CLR,CLR,0.04,0.0,WeatherDisplay:10.37,2013-05-21 02:59:00,
2013-05-20 20:04:00,51.4,42.7,29.80,North,357,8.1,0.0,72,0.00,CLR,CLR,0.04,0.0,WeatherDisplay:10.37,2013-05-21 03:04:00,
2013-05-20 20:09:00,51.4,42.7,29.80,North,357,8.1,0.0,72,0.00,CLR,CLR,0.04,0.0,WeatherDisplay:10.37,2013-05-21 03:09:00,
2013-05-20 20:14:00,51.4,42.7,29.77,North,357,8.1,0.0,72,0.00,CLR,CLR,0.04,0.0,WeatherDisplay:10.37,2013-05-21 03:14:00,
2013-05-20 20:20:00,51.4,42.7,29.77,North,357,8.1,0.0,72,0.00,CLR,CLR,0.04,0.0,WeatherDisplay:10.37,2013-05-21 03:20:00,
2013-05-20 20:25:00,50.4,42.4,29.77,North,357,8.1,0.0,74,0.00,CLR,CLR,0.04,0.0,WeatherDisplay:10.37,2013-05-21 03:25:00,
2013-05-20 20:30:00,50.4,42.4,29.77,North,357,8.1,0.0,74,0.00,CLR,CLR,0.04,0.0,WeatherDisplay:10.37,2013-05-21 03:30:00,
2013-05-20 20:35:00,50.4,42.4,29.77,North,357,8.1,0.0,74,0.00,CLR,CLR,0.04,0.0,WeatherDisplay:10.37,2013-05-21 03:35:00,
2013-05-20 20:41:00,50.4,42.4,29.77,North,357,8.1,0.0,74,0.00,CLR,CLR,0.04,0.0,WeatherDisplay:10.37,2013-05-21 03:41:00,
2013-05-20 20:46:00,50.4,42.4,29.77,North,357,8.1,0.0,74,0.00,CLR,CLR,0.04,0.0,WeatherDisplay:10.37,2013-05-21 03:46:00,
2013-05-20 20:51:00,50.4,42.4,29.77,North,357,8.1,0.0,74,0.00,CLR,CLR,0.04,0.0,WeatherDisplay:10.37,2013-05-21 03:51:00,
2013-05-20 20:56:00,50.4,42.4,29.77,North,357,8.1,0.0,74,0.00,CLR,CLR,0.04,0.0,WeatherDisplay:10.37,2013-05-21 03:56:00,
2013-05-20 21:01:00,50.4,42.4,29.74,North,357,8.1,0.0,74,0.00,CLR,CLR,0.04,0.0,WeatherDisplay:10.37,2013-05-21 04:01:00,
2013-05-20 21:02:00,50.4,42.4,29.74,North,357,8.1,0.0,74,0.00,CLR,CLR,0.04,0.0,WeatherDisplay:10.37,2013-05-21 04:02:00,
2013-05-20 21:03:00,50.4,42.4,29.74,North,357,8.1,0.0,74,0.00,CLR,CLR,0.04,0.0,WeatherDisplay:10.37,2013-05-21 04:03:00,
2013-05-20 21:06:00,50.4,42.4,29.74,North,357,8.1,0.0,74,0.00,CLR,CLR,0.04,0.0,WeatherDisplay:10.37,2013-05-21 04:06:00,
2013-05-20 21:12:00,50.4,42.4,29.74,North,357,8.1,0.0,74,0.00,CLR,CLR,0.04,0.0,WeatherDisplay:10.37,2013-05-21 04:12:00,
2013-05-20 21:17:00,50.4,42.4,29.74,North,357,8.1,0.0,74,0.00,CLR,CLR,0.04,0.0,WeatherDisplay:10.37,2013-05-21 04:17:00,
2013-05-20 21:22:00,50.4,42.4,29.74,North,357,8.1,0.0,74,0.00,CLR,CLR,0.04,0.0,WeatherDisplay:10.37,2013-05-21 04:22:00,
2013-05-20 21:27:00,50.4,42.4,29.74,North,357,8.1,0.0,74,0.00,CLR,CLR,0.04,0.0,WeatherDisplay:10.37,2013-05-21 04:27:00,
2013-05-20 21:32:00,50.4,42.4,29.74,North,357,8.1,0.0,74,0.00,CLR,CLR,0.04,0.0,WeatherDisplay:10.37,2013-05-21 04:32:00,
2013-05-20 21:37:00,50.4,42.4,29.74,North,357,8.1,0.0,74,0.00,CLR,CLR,0.04,0.0,WeatherDisplay:10.37,2013-05-21 04:37:00,
2013-05-20 21:42:00,50.4,42.4,29.74,North,357,8.1,0.0,74,0.00,CLR,CLR,0.04,0.0,WeatherDisplay:10.37,2013-05-21 04:42:00,
2013-05-20 21:48:00,50.4,42.4,29.74,North,357,8.1,0.0,74,0.00,CLR,CLR,0.04,0.0,WeatherDisplay:10.37,2013-05-21 04:48:00,
2013-05-20 21:53:00,32.0,-40.6,29.74,North,357,8.1,0.0,3,0.00,CLR,CLR,0.04,0.0,WeatherDisplay:10.37,2013-05-21 04:53:00,
2013-05-20 21:58:00,32.0,-40.6,29.74,North,357,8.1,0.0,3,0.00,CLR,CLR,0.04,0.0,WeatherDisplay:10.37,2013-05-21 04:58:00,
2013-05-20 22:04:00,32.0,-40.6,29.74,North,357,8.1,0.0,3,0.00,CLR,CLR,0.04,0.0,WeatherDisplay:10.37,2013-05-21 05:04:00,
2013-05-20 22:09:00,32.0,-40.6,29.74,North,357,8.1,0.0,3,0.00,CLR,CLR,0.04,0.0,WeatherDisplay:10.37,2013-05-21 05:09:00,
2013-05-20 22:14:00,32.0,-40.6,29.74,North,357,8.1,0.0,3,0.00,CLR,CLR,0.04,0.0,WeatherDisplay:10.37,2013-05-21 05:14:00,
2013-05-20 22:19:00,32.0,-40.6,29.74,North,357,8.1,0.0,3,0.00,CLR,CLR,0.04,0.0,WeatherDisplay:10.37,2013-05-21 05:19:00,
2013-05-20 22:24:00,32.0,-40.6,29.74,North,357,8.1,0.0,3,0.00,CLR,CLR,0.04,0.0,WeatherDisplay:10.37,2013-05-21 05:24:00,
2013-05-20 22:29:00,32.0,-40.6,29.74,North,357,8.1,0.0,3,0.00,CLR,CLR,0.04,0.0,WeatherDisplay:10.37,2013-05-21 05:29:00,
2013-05-20 22:34:00,32.0,-40.6,29.71,North,357,8.1,0.0,3,0.04,RA,RA,0.04,0.0,WeatherDisplay:10.37,2013-05-21 05:34:00,
2013-05-20 22:40:00,32.0,-40.6,29.71,North,357,8.1,0.0,3,0.00,CLR,CLR,0.04,0.0,WeatherDisplay:10.37,2013-05-21 05:40:00,
2013-05-20 22:45:00,32.0,-40.6,29.71,North,11,8.1,0.0,3,0.00,CLR,CLR,0.04,0.0,WeatherDisplay:10.37,2013-05-21 05:45:00,
2013-05-20 22:50:00,32.0,-40.6,29.71,North,11,8.1,0.0,3,0.00,CLR,CLR,0.04,0.0,WeatherDisplay:10.37,2013-05-21 05:50:00,
2013-05-20 22:55:00,32.0,-40.6,29.71,NNE,15,8.1,0.0,3,0.00,CLR,CLR,0.20,0.0,WeatherDisplay:10.37,2013-05-21 05:55:00,
2013-05-20 23:00:00,32.0,-40.6,29.71,NNE,15,8.1,0.0,3,0.00,CLR,CLR,0.20,0.0,WeatherDisplay:10.37,2013-05-21 06:00:00,
2013-05-20 23:05:00,32.0,-40.6,29.71,NW,316,8.1,8.1,3,0.00,CLR,CLR,0.20,0.0,WeatherDisplay:10.37,2013-05-21 06:05:00,
2013-05-20 23:10:00,32.0,-40.6,29.71,NW,316,8.1,8.1,3,0.00,CLR,CLR,0.20,0.0,WeatherDisplay:10.37,2013-05-21 06:10:00,
2013-05-20 23:16:00,32.0,-40.6,29.71,NW,316,8.1,8.1,3,0.00,CLR,CLR,0.20,0.0,WeatherDisplay:10.37,2013-05-21 06:16:00,
2013-05-20 23:21:00,32.0,-40.6,29.71,NW,316,8.1,8.1,3,0.00,CLR,CLR,0.20,0.0,WeatherDisplay:10.37,2013-05-21 06:21:00,
2013-05-20 23:26:00,32.0,-40.6,29.71,NW,316,8.1,8.1,3,0.00,CLR,CLR,0.20,0.0,WeatherDisplay:10.37,2013-05-21 06:26:00,
2013-05-20 23:31:00,32.0,-40.6,29.71,NW,316,8.1,8.1,3,0.00,CLR,CLR,0.20,0.0,WeatherDisplay:10.37,2013-05-21 06:31:00,
2013-05-20 23:36:00,32.0,-40.6,29.71,NW,316,8.1,8.1,3,0.00,CLR,CLR,0.20,0.0,WeatherDisplay:10.37,2013-05-21 06:36:00,
2013-05-20 23:41:00,32.0,-40.6,29.71,NW,316,8.1,8.1,3,0.00,CLR,CLR,0.28,0.0,WeatherDisplay:10.37,2013-05-21 06:41:00,
2013-05-20 23:46:00,32.0,-40.6,29.68,NW,316,8.1,8.1,3,0.00,CLR,CLR,0.28,0.0,WeatherDisplay:10.37,2013-05-21 06:46:00,
2013-05-20 23:51:00,32.0,-40.6,29.68,NW,316,8.1,8.1,3,0.00,CLR,CLR,0.28,0.0,WeatherDisplay:10.37,2013-05-21 06:51:00,
2013-05-20 23:56:00,48.6,42.0,29.68,NNW,337,8.1,8.1,78,0.00,CLR,CLR,0.28,0.0,WeatherDisplay:10.37,2013-05-21 06:56:00,